Regional Weather Roundup
Issued by NWS Jackson, KY

Home | Current Version | Previous Version | Text Only | Print | Product List | Glossary On
Versions: 1 2 3 4 5 6 7 8 9 10 11 12 13 14 15 16 17 18 19 20 21 22 23 24 25 26 27 28 29 30 31 32 33 34 35 36 37 38 39 40 41 42 43 44 45 46 47 48 49 50
000
ASUS43 KJKL 051010
RWRJKL

EAST KENTUCKY HOURLY WEATHER ROUNDUP
NATIONAL WEATHER SERVICE JACKSON KY
600 AM EDT SAT SEP 05 2015

NOTE: "FAIR" INDICATES FEW OR NO CLOUDS BELOW 12,000 FEET WITH
NO SIGNIFICANT WEATHER AND/OR OBSTRUCTIONS TO VISIBILITY.

* THESE REPORTS ARE NOT UNDER NWS QUALITY CONTROL AND MAY NOT
  REPORT WEATHER SUCH AS PRECIPITATION AND FOG.

KYZ079-080-083-085-087-088-110-112-115-119-120-051100
...EASTERN KENTUCKY...

CITY           SKY/WX    TMP DP  RH WIND       PRES   REMARKS
JACKSON        CLEAR     69  65  86 VRB3      30.13R
LONDON         CLEAR     70  64  81 CALM      30.12R
SOMERSET*      PTCLDY    66  66 100 CALM      30.12R
MONTICELLO*    CLEAR     64  64 100 CALM      30.13R FOG
WILLIAMSBURG*  CLOUDY    63  63 100 CALM      30.12R
MIDDLESBORO*   PTCLDY    64  64  99 CALM      30.13S
HARLAN APT*      N/A     66  66 100 MISG      30.15R VSB 1/2
HAZARD APT*      N/A     66  66 100 CALM      30.14R FOG
BLACK MTN*       N/A     63  57  82 S2          N/A
PIKEVILLE APT* CLEAR     66  66 100 SE3       30.14R
BIG SANDY*     FOG       67  67 100 E3        30.14R VSB 1
MOREHEAD APT*  SUNNY     68  61  77 CALM      30.15R
$$

KYZ035-036-041-042-044-050-067-078-099-051100
...CENTRAL KENTUCKY...

CITY           SKY/WX    TMP DP  RH WIND       PRES   REMARKS
MT STERLING*   CLEAR    N/A N/A N/A CALM      30.15R
FLEMING/MASON* CLEAR     64  64 100 E5        30.14R
DANVILLE*      PTCLDY    64  63  94 CALM      30.12R
RICHMOND*      PTCLDY    64  61  88 CALM      30.11R
LEXINGTON      PTCLDY    68  62  81 CALM      30.12R
FRANKFORT      PTCLDY    65  62  90 CALM      30.10R
$$

KYZ091>093-OHZ055-061-077-WVZ005-015-034-035-042-051100
...SOUTHERN OHIO/WEST VIRGINIA...

CITY           SKY/WX    TMP DP  RH WIND       PRES   REMARKS
COVINGTON      MOCLDY    68  65  90 E3        30.12R
COLUMBUS       PTCLDY    65  64  97 CALM      30.13R
DAYTON         MOCLDY    62  62 100 SE6       30.14R
WILMINGTON     CLEAR     62  60  93 CALM      30.13R
HUNTINGTON     CLEAR     67  65  93 CALM      30.13R
CHARLESTON     CLEAR     67  65  93 CALM      30.14R
PINEVILLE*     CLEAR     63  63 100 MISG      30.23S FOG
BECKLEY        CLEAR     65  62  90 SE8       30.22R FOG
BLUEFIELD      CLOUDY    68  62  81 VRB6      30.24R
$$

VAZ002-007-008-TNZ017-027-036-066-071-051100
...SOUTHWEST VIRGINIA/EAST TENNESSEE...

CITY           SKY/WX    TMP DP  RH WIND       PRES   REMARKS
WISE*          CLEAR     64  55  72 S3        30.21S
JONESVILLE*    SUNNY     63  63 100 CALM      30.16R FOG
ABINGDON*      CLEAR     67  61  83 E7        30.18S
BRISTOL        CLEAR     63  61  93 E3        30.15R
KNOXVILLE      PTCLDY    68  67  96 CALM      30.08R
OAK RIDGE      CLEAR     70  66  87 CALM      30.10R
CROSSVILLE     CLEAR     65  63  93 CALM      30.13S FOG
NASHVILLE      PTCLDY    70  67  90 CALM      30.06R FOG
$$

...KEY TO REMARKS...
VSB - VISIBILITY IN MILES
WCI - WIND CHILL INDEX
HX  - HEAT INDEX

$$


USA.gov is the U.S. government's official web portal to all federal, state and local government web resources and services.